Tracking 19562 objects as of 22-Mar-2019
HD Live streaming from Space Station
objects crossing your sky now

INTELSAT 905

Track INTELSAT 905 now!
INTELSAT 905 is classified as:


NORAD ID: 27438
Int'l Code: 2002-027A
Perigee: 35,781.3 km
Apogee: 35,806.4 km
Inclination: 0.2 °
Period: 1,436.1 minutes
Semi major axis: 42164 km
RCS: 11.535 m2 (large)
Launch date: June 5, 2002
Source: International Telecommunications Satellite Organization (ITSO)
Launch site: FRENCH GUIANA (FRGUI)

76 C-band, 22 Ku-band, broadcasting, business services, direct-to-home TV broadcasting, telecommunications, VSAT networks; Atlantic Ocean region.
aabbcc
Your satellite tracking list
Your tracking list is empty




NASA's NSSDC Master Catalog

Two Line Element Set (TLE):
1 27438U 02027A   19080.86490628 -.00000209 +00000-0 +00000-0 0  9998
2 27438 000.2285 101.0698 0002981 262.5980 102.2658 01.00271308024866
Source of the keplerian elements: AFSPC